sat.trackr.live / text

‹ back to catalog

IRIDIUM 132

NORAD 42961 · 2017-061G

PAYLOAD ACTIVE UNKNOWN

§ Identity

Operator
Country
US
Launch date
2017-10-09
Launch site
AFWTR
Launch vehicle
Mass (kg)
RCS (m²)

Purposes: comms

External: N2YO · Heavens-Above · Gunter

§ Orbital elements

Epoch: 2026-09-20T04:14:34.725120Z

Period
100.40 min
Inclination
86.4023°
Eccentricity
0.0002215
Mean motion
14.34217706 rev/d
Perigee alt
776.1 km
Apogee alt
779.3 km
Semi-major
7,155.8 km
B*
-2.0316e-6
RAAN
345.5605°
Arg perigee
95.4165°
Mean anomaly
264.7284°
Rev number
46,843

§ Raw data

IRIDIUM 1321 42961U 17061G   26263.17679080  .00000014  00000+0 -20316-5 0  99962 42961  86.4023 345.5605 0002215  95.4165 264.7284 14.34217706468438

JSON: /api/v1/satellites/42961 · /tle

For live sub-satellite position, see the globe view (requires WebGL).

§ Visibility from observer

Set your observer location to see the next 7 days of passes ≥ 10°. The values pass through the URL so the page stays shareable.

No JS? Fill the form by hand. The geolocation button needs JavaScript.